[[{"header":{"parameterUnit":"m.s-1","parameterCategory":1,"la1":30.2991,"la2":30.254,"lo1":-89.0895,"lo2":-89.0444,"dy":0.0017,"dx":0.0017,"nx":28,"ny":28,"refTime":"2025-03-21T03:00:00:Z","depth":0,"parameterNumber":2,"parameterNumberName":"U-component_of_WINDS"},"data":[0,0,0,0,0,0,0,0,0,0,0,0,0,0,0,0,0,0,0,0,0,0,0,0,0,0,0,0,0,0,0,0,0,0,0,0,0,0,0,0,0,0,0,0,0,0,0,0,0,0,0,0,0,0,0,0,0,0,4.4461,4.4464,0,4.4701,4.4704,4.4706,4.4685,4.4682,4.4678,4.4675,4.492,4.4929,4.4939,0,0,0,0,0,0,0,0,0,0,0,0,0,4.3981,4.399,4.4461,4.4464,4.4467,4.47,4.4704,4.4707,4.4686,4.4682,4.4677,4.4673,4.4916,4.4928,4.494,0,0,0,0,0,0,0,0,0,0,0,0,0,4.4202,4.3993,4.446,4.4485,4.4489,4.47,4.4704,4.4708,4.4687,4.4681,4.4676,4.4671,4.4913,4.4927,4.4942,4.5144,0,0,4.4987,4.4994,0,0,0,0,0,0,0,0,4.4189,4.422,4.4478,4.4483,4.4489,4.4658,4.4624,4.4854,4.4688,4.4612,4.4674,4.4668,4.4837,4.4858,4.4915,4.5155,4.5166,4.4989,4.4998,4.5004,4.5008,0,0,0,0,0,0,0,4.4174,4.4209,4.4556,4.4482,4.4488,4.4482,4.4508,4.4668,4.4752,4.4618,4.4617,4.4646,4.4839,4.49,4.492,4.5169,4.4988,4.5001,4.5011,4.5016,4.5582,4.5587,0,0,0,0,0,0,4.4154,4.4197,4.4548,4.4563,4.4323,4.4495,4.4524,4.4609,4.475,4.4767,4.465,4.4644,4.4878,4.4903,4.4929,4.5171,4.5004,4.5018,4.5026,4.5575,4.5583,4.5589,0,0,0,0,0,0,4.4143,4.4185,4.4538,4.438,4.4424,4.4509,4.4605,4.4617,4.4678,4.4775,4.4789,4.4698,4.4874,4.4908,4.5089,4.5179,4.5025,4.5038,4.5568,4.5578,4.5586,4.5658,0,0,0,0,0,0,4.413,4.4182,4.426,4.4382,4.4433,4.4696,4.4611,4.4625,4.4704,4.4698,4.4823,4.4839,4.4873,4.5067,4.5104,4.5197,4.505,4.5561,4.5573,4.5583,4.5648,4.5668,4.5686,0,0,0,0,0,4.4113,4.4272,4.4264,4.4307,4.4533,4.4701,4.4731,4.4766,4.4711,4.479,4.4851,4.4835,4.5163,4.5086,4.5127,4.5226,4.5555,4.5569,4.5582,4.5639,4.5664,4.5685,0,0,0,0,0,0,4.416,4.4288,4.4282,4.4485,4.4582,4.4698,4.4798,4.4792,4.4907,4.4897,4.4936,4.4964,4.5146,4.5204,4.5116,4.5426,4.5352,4.5374,4.5381,4.5405,4.5424,4.5405,4.5062,0,0,0,0,0,4.4194,4.4321,4.4426,4.4595,4.4644,4.4713,4.4788,4.4806,4.4909,4.495,4.5025,4.5124,4.5249,4.5331,4.5452,4.5657,4.5681,4.5744,4.5763,4.5778,4.5797,4.5904,4.5932,4.5634,4.5634,4.5634,0,0,4.4266,4.4352,4.443,4.4607,4.4685,4.4813,4.4748,4.4888,4.4983,4.4971,4.5146,4.5204,4.5317,4.551,4.5598,4.5564,4.5885,4.5796,4.5807,4.5818,4.5921,4.5949,4.5974,4.5644,4.5642,4.564,0,0,4.4461,4.4541,4.4688,4.4767,4.4884,4.4928,4.4963,4.5079,4.5117,4.5293,4.5285,4.5399,4.5615,4.5694,4.5763,4.5984,4.5972,4.6023,4.6121,4.6226,4.6249,4.627,4.6345,4.6372,4.6041,4.6041,4.6042,0,4.4535,4.473,4.4765,4.4905,4.4981,4.4976,4.5124,4.5198,4.5349,4.5401,4.5361,4.5628,4.5705,4.5913,4.5967,4.6024,4.6063,4.6008,4.6243,4.6265,4.6285,4.6356,4.6385,4.6046,4.6046,4.6045,4.6045,0,4.4813,4.4947,4.5052,4.5197,4.5285,4.5429,4.5484,4.5569,4.5579,4.5627,4.5803,4.5894,4.6031,4.6082,4.6095,4.6292,4.6266,4.6235,4.616,4.6317,4.6385,4.6414,4.6054,4.6052,4.605,4.6049,0,0,4.5046,4.5206,4.5243,4.5307,4.5435,4.5538,4.568,4.5813,4.5884,4.5988,4.6105,4.6286,4.6256,4.6334,4.6355,4.6447,4.6611,4.6403,4.6406,4.6435,4.6829,4.685,4.6881,4.6604,4.661,4.6614,4.6818,0,4.5252,4.5503,4.5536,4.5758,4.588,4.5875,4.5997,4.6088,4.6136,4.6245,4.6297,4.6423,4.6376,4.6422,4.6513,4.6572,4.669,4.6558,4.6711,4.6716,4.668,4.6918,4.6942,4.7129,4.6845,4.685,4.6853,0,4.5526,4.5635,4.5868,4.5975,4.6027,4.6137,4.6259,4.6365,4.6466,4.6494,4.6579,4.6588,4.6731,4.6652,4.6849,4.6758,4.6823,4.6861,4.6869,4.6882,4.6792,4.6934,4.7191,4.7217,4.6896,4.6893,4.689,0,4.5667,4.5873,4.6038,4.6093,4.6223,4.6299,4.6357,4.6453,4.6529,4.6636,4.6685,4.6808,4.6874,4.6968,4.7008,4.6948,4.7201,4.7127,4.7225,4.7224,4.7277,4.7273,4.7544,4.7324,4.7324,4.7323,4.7323,0,4.5891,4.6033,4.6102,4.6203,4.6361,4.6397,4.6552,4.6607,4.6691,4.6801,4.6805,4.6908,4.6956,4.7066,4.7098,4.7253,4.7285,4.7309,4.7315,4.7307,4.7303,4.7348,4.7334,4.7331,4.7329,4.7328,4.7326,0,4.6076,4.6128,4.6307,4.6414,4.6444,4.6555,4.6646,4.6743,4.6788,4.6927,4.6961,4.7032,4.7161,4.7211,4.7369,4.739,4.7568,4.7566,4.7534,4.7535,4.7629,4.7618,4.7936,4.7978,4.7733,4.7736,4.7738,0,4.6214,4.6323,4.6441,4.6514,4.6574,4.6693,4.677,4.6809,4.6889,4.701,4.7091,4.722,4.7324,4.7529,4.7594,4.7714,4.7712,4.7815,4.773,4.7717,4.7709,4.7701,4.771,4.783,4.7833,4.7835,4.7837,0,4.6453,4.6472,4.6583,4.6703,4.6794,4.6891,4.6984,4.7044,4.7097,4.7186,4.7317,4.7398,4.7557,4.7683,4.7805,4.7863,4.7858,4.7863,4.7891,4.7882,4.7858,4.7868,4.7573,4.7855,4.7853,4.7852,4.7851,4.785,4.6616,4.671,4.6806,4.6929,4.7003,4.7089,4.7184,4.724,4.735,4.7482,4.7499,4.7638,4.7733,4.7896,4.7959,4.8067,4.8039,4.8082,4.8092,4.8101,4.8105,4.7842,4.809,4.8089,4.8089,4.8089,4.8088,0,4.6851,4.6912,4.7024,4.7154,4.7249,4.7236,4.7338,4.7418,4.754,4.7629,4.7731,4.7879,4.8,4.8074,4.8194,4.8267,4.8267,4.8297,4.829,4.8303,4.8125,4.8086,4.8294,4.8294,4.8294,4.8294,4.8294,4.8294,4.6984,4.7142,4.7172,4.7365,4.7425,4.7561,4.7619,4.7698,4.7768,4.7933,4.8033,4.808,4.8162,4.8288,4.8397,4.8415,4.8458,4.849,4.8505,4.8337,4.8316,4.8295,4.8259,4.85,4.85,4.8673,4.8675,4.8676]},{"header":{"parameterUnit":"m.s-1","parameterCategory":1,"la1":30.2991,"la2":30.254,"lo1":-89.0895,"lo2":-89.0444,"dy":0.0017,"dx":0.0017,"nx":28,"ny":28,"refTime":"2025-03-21T03:00:00:Z","depth":0,"parameterNumber":3,"parameterNumberName":"V-component_of_WINDS"},"data":[0,0,0,0,0,0,0,0,0,0,0,0,0,0,0,0,0,0,0,0,0,0,0,0,0,0,0,0,0,0,0,0,0,0,0,0,0,0,0,0,0,0,0,0,0,0,0,0,0,0,0,0,0,0,0,0,0,0,0.873,0.8729,0,0.8691,0.8691,0.869,0.8622,0.8621,0.8619,0.8618,0.8579,0.8579,0.8579,0,0,0,0,0,0,0,0,0,0,0,0,0,0.8742,0.8742,0.873,0.8729,0.8729,0.8691,0.8691,0.869,0.8622,0.8621,0.8619,0.8617,0.8579,0.8579,0.8579,0,0,0,0,0,0,0,0,0,0,0,0,0,0.8723,0.8742,0.873,0.869,0.8686,0.8691,0.8691,0.869,0.8622,0.862,0.8619,0.8617,0.8579,0.8579,0.8579,0.862,0,0,0.858,0.858,0,0,0,0,0,0,0,0,0.8724,0.8723,0.8697,0.8693,0.8689,0.8659,0.868,0.8666,0.8623,0.8647,0.8618,0.8616,0.8607,0.8605,0.8602,0.8618,0.8616,0.858,0.858,0.858,0.858,0,0,0,0,0,0,0,0.8726,0.8724,0.8714,0.8696,0.8691,0.8673,0.8669,0.8677,0.8638,0.8644,0.8639,0.8636,0.8604,0.8602,0.86,0.8615,0.858,0.858,0.858,0.858,0.8658,0.866,0,0,0,0,0,0,0.8733,0.8726,0.8716,0.8713,0.8702,0.8675,0.867,0.8671,0.8638,0.8631,0.8637,0.8633,0.8602,0.86,0.8599,0.8642,0.858,0.858,0.858,0.8656,0.8659,0.8661,0,0,0,0,0,0,0.8734,0.8733,0.8717,0.8718,0.8715,0.8677,0.8679,0.8671,0.8668,0.8633,0.8625,0.8642,0.8601,0.8598,0.8614,0.864,0.858,0.8581,0.8654,0.8657,0.866,0.873,0,0,0,0,0,0,0.8734,0.8733,0.8749,0.8719,0.8715,0.8734,0.868,0.8672,0.8669,0.8662,0.8635,0.8629,0.8599,0.8614,0.8614,0.8639,0.8581,0.8652,0.8656,0.8659,0.8725,0.8735,0.8743,0,0,0,0,0,0.8735,0.8771,0.8751,0.875,0.8734,0.8736,0.8734,0.8699,0.8671,0.8686,0.8663,0.863,0.8637,0.8616,0.8616,0.8641,0.865,0.8654,0.8659,0.8721,0.8733,0.8743,0,0,0,0,0,0,0.8807,0.8767,0.8743,0.8771,0.8757,0.8724,0.8743,0.8713,0.8707,0.8701,0.8657,0.8652,0.8672,0.8658,0.8636,0.8676,0.8638,0.8642,0.8685,0.8696,0.8705,0.8708,0.8581,0,0,0,0,0,0.8826,0.8831,0.8796,0.8824,0.8818,0.8781,0.8781,0.8755,0.8739,0.8733,0.8711,0.8696,0.8694,0.8694,0.8691,0.8722,0.8714,0.8739,0.8748,0.8755,0.876,0.8772,0.8782,0.8675,0.8675,0.8675,0,0,0.8866,0.8844,0.8851,0.8837,0.8824,0.8829,0.8777,0.8786,0.8789,0.8734,0.8747,0.873,0.871,0.8733,0.8742,0.8721,0.8787,0.8761,0.8767,0.8767,0.8777,0.8788,0.8797,0.8678,0.8678,0.8677,0,0,0.894,0.8926,0.8946,0.8932,0.8911,0.8886,0.8891,0.8862,0.8848,0.886,0.8818,0.882,0.882,0.8806,0.88,0.8865,0.8834,0.8865,0.8912,0.8925,0.8933,0.894,0.8962,0.897,0.887,0.887,0.887,0,0.8992,0.8999,0.896,0.897,0.8965,0.8914,0.8933,0.8922,0.8901,0.8898,0.8876,0.8871,0.8854,0.8872,0.8887,0.8884,0.8887,0.8869,0.8935,0.8942,0.8948,0.8968,0.8977,0.8874,0.8873,0.8873,0.8873,0,0.9063,0.9068,0.9087,0.9067,0.9063,0.9078,0.904,0.9041,0.9014,0.8991,0.9002,0.8979,0.897,0.8972,0.8947,0.8985,0.8972,0.8943,0.8904,0.8963,0.8981,0.8988,0.8879,0.8878,0.8877,0.8876,0,0,0.9184,0.914,0.9147,0.9136,0.9108,0.9111,0.9122,0.9111,0.9112,0.9098,0.9105,0.9104,0.9076,0.9068,0.904,0.9051,0.9101,0.902,0.9019,0.9035,0.9139,0.9161,0.9171,0.908,0.9081,0.9082,0.914,0,0.9252,0.9269,0.9233,0.9258,0.9261,0.9211,0.922,0.9203,0.918,0.9178,0.9154,0.9153,0.9116,0.9111,0.9119,0.9094,0.9122,0.9089,0.9085,0.9085,0.9091,0.918,0.9204,0.926,0.9147,0.9149,0.9149,0,0.9335,0.9324,0.9349,0.9316,0.9316,0.9325,0.931,0.931,0.9288,0.9271,0.926,0.9227,0.9234,0.9195,0.9203,0.9181,0.9177,0.9163,0.9165,0.9163,0.9121,0.918,0.9277,0.9285,0.916,0.916,0.9159,0,0.9418,0.941,0.9423,0.9416,0.9378,0.9385,0.937,0.9346,0.9341,0.9328,0.9323,0.9312,0.9306,0.9297,0.926,0.9236,0.9271,0.923,0.9256,0.9257,0.9266,0.9266,0.9363,0.9264,0.9264,0.9264,0.9264,0,0.9498,0.9515,0.946,0.9469,0.9485,0.9442,0.9459,0.9439,0.9417,0.9419,0.9375,0.9378,0.933,0.9327,0.9298,0.9307,0.9305,0.929,0.9282,0.9294,0.9296,0.9291,0.9286,0.9266,0.9266,0.9265,0.9265,0,0.9595,0.9559,0.957,0.9532,0.9523,0.9537,0.9504,0.9509,0.9483,0.9486,0.9484,0.9443,0.9436,0.9399,0.9384,0.9365,0.9383,0.9368,0.9391,0.9386,0.9413,0.941,0.951,0.952,0.9416,0.9417,0.9418,0,0.9648,0.966,0.9622,0.962,0.9607,0.9604,0.9598,0.9555,0.955,0.9524,0.9532,0.9522,0.9511,0.9503,0.9471,0.9459,0.9442,0.9478,0.944,0.9451,0.9441,0.9441,0.944,0.9486,0.9488,0.9489,0.949,0,0.9745,0.9726,0.9719,0.9705,0.9699,0.9686,0.967,0.967,0.9622,0.9619,0.9611,0.9603,0.9586,0.9576,0.9558,0.954,0.9507,0.9501,0.9506,0.9518,0.953,0.9522,0.9412,0.9499,0.9498,0.9498,0.9497,0.9497,0.9821,0.9828,0.9802,0.9794,0.9777,0.9763,0.9765,0.9738,0.9731,0.9714,0.9688,0.9684,0.9658,0.963,0.9615,0.9609,0.959,0.9598,0.96,0.9602,0.9607,0.9531,0.9606,0.9606,0.9605,0.9605,0.9605,0,0.9914,0.9894,0.9888,0.9866,0.986,0.9828,0.9807,0.9804,0.98,0.9779,0.9769,0.9759,0.9748,0.9714,0.9699,0.9701,0.9685,0.9699,0.9698,0.9694,0.9626,0.9623,0.9712,0.9712,0.9712,0.9712,0.9712,0.9712,0.9962,0.9971,0.9949,0.9948,0.9927,0.9922,0.9913,0.9898,0.9881,0.9871,0.9861,0.9839,0.9812,0.9794,0.9782,0.9772,0.9768,0.9787,0.9771,0.9709,0.9699,0.9689,0.9686,0.9786,0.9786,0.9839,0.984,0.984]}]]